Location: Briarwood
(39.0812°N, 76.8511°W)
Time: 23:52:31
(UTC+00:00)

Cosmos 1743 - Pass Details

Date: 10 September 2024
Orbit: 465 x 477 km, 82.5° (Epoch: 06 October)

Event Time Altitude Azimuth Distance (km) Brightness Sun altitude
Rises 23:43:00 0° 168° (SSE) 2,512 6.0 -4.7°
Reaches altitude 10° 23:45:11 10° 159° (SSE) 1,635 4.9 -5.1°
Maximum altitude 23:48:27 35° 92° (E) 786 3.1 -5.7°
Drops below altitude 10° 23:51:48 10° 25° (NNE) 1,666 5.1 -6.4°
Sets 23:53:56 0° 17° (NNE) 2,516 6.1 -6.8°
